Regional Weather Roundup
Issued by NWS

Home | Current Version | Previous Version | Text Only | Print | Product List | Glossary On
Versions: 1 2 3 4 5 6 7 8 9 10 11 12 13 14 15 16 17 18 19 20 21 22 23 24 25 26 27
000
ASUS45 KPSR 182010
RWRAZ

ARIZONA HOURLY REGIONAL WEATHER ROUNDUP
NATIONAL WEATHER SERVICE PHOENIX AZ
100 PM MST FRI AUG 18 2017

NOTE: FAIR INDICATES FEW OR NO CLOUDS BELOW 12,000 FEET WITH NO
SIGNIFICANT WEATHER AND/OR OBSTRUCTIONS TO VISIBILITY.

AZZ001>003-036-182100-
NORTHWEST ARIZONA

CITY           SKY/WX    TMP DP  RH WIND       PRES   REMARKS
BULLHEAD CITY  SUNNY    104  37  10 S12       29.88F
KINGMAN        SUNNY     94  37  13 VRB5      30.08F
$$

AZZ004>008-015-016-018-182100-
NORTH CENTRAL ARIZONA

CITY           SKY/WX    TMP DP  RH WIND       PRES   REMARKS
GRAND CANYON   PTSUNNY   82  34  17 E5        30.32F
WILLIAMS       SUNNY     81  37  21 S14G23    30.33F
PRESCOTT       SUNNY     85  21   9 VRB3      30.22F
FLAGSTAFF      SUNNY     78  37  22 S10G21    30.35F
PAYSON           N/A     88  28  11 S9        30.23F
PAGE           SUNNY     93  36  13 VRB5      30.11F
$$

AZZ009>014-017-182100-
NORTHEAST ARIZONA

CITY           SKY/WX    TMP DP  RH WIND       PRES   REMARKS
WINSLOW        SUNNY     92  32  12 MISG      30.18F
SAINT JOHNS    SUNNY     88  34  14 VRB5      30.24F
WINDOW ROCK    MOSUNNY   87  30  13 MISG      30.31F
SHOW LOW       SUNNY     82  34  17 SW6       30.30F
$$

AZZ540-542>544-546-548-182100-
GREATER PHOENIX AREA

CITY           SKY/WX    TMP DP  RH WIND       PRES   REMARKS
PHOENIX        MOSUNNY  103  38  10 S7        29.91F
BUCKEYE        SUNNY    100  37  11 SE7       29.93F
GLENDALE       MOSUNNY  102  39  11 W5        29.94F
LUKE AFB       SUNNY    101  42  13 W6        29.91F
DEER VALLEY    SUNNY    100  33   9 SW7       29.93F
SCOTTSDALE     SUNNY    101  30   8 CALM      29.95F
MESA-FALCON    MOSUNNY  100  39  12 VRB6      29.95F
MESA-GATEWAY   MOSUNNY   99  39  12 CALM      29.95F
CHANDLER       SUNNY     99  39  12 S7        29.93F
$$

AZZ539-553-182100-
SOUTHWEST MARICOPA COUNTY AND PINAL COUNTY

CITY           SKY/WX    TMP DP  RH WIND       PRES   REMARKS
CASA GRANDE    SUNNY     99  45  15 VRB6      29.96F
GILA BEND      SUNNY    103  38  11 NW9       29.88F
$$

AZZ503-504-507>509-182100-
SOUTHEAST ARIZONA

CITY           SKY/WX    TMP DP  RH WIND       PRES   REMARKS
TUCSON         NOT AVBL
DAVIS-MONTHAN  SUNNY     98  37  12 W7        30.03F
RYAN FIELD     SUNNY     97  37  12 N5        30.03F
NOGALES        MOSUNNY   91  42  18 VRB3      30.12F
SIERRA VISTA   MOSUNNY   91  35  14 N6        30.19F
DOUGLAS        SUNNY     89  48  24 W5        30.13F
SAFFORD        MOSUNNY   96  38  13 VRB3      30.03F
$$

AZZ532-182100-
SOUTHWEST ARIZONA

CITY           SKY/WX    TMP DP  RH WIND       PRES   REMARKS
YUMA           SUNNY    102  57  22 S8G18     29.85F HX 101
$$

CAZ041-043-047-048-061-525>527-560>570-182100-
SOUTHERN CALIFORNIA

CITY           SKY/WX    TMP DP  RH WIND       PRES   REMARKS
DOWNTOWN L.A.  SUNNY     80  62  54 W8        29.98F
L.A. AIRPORT   MOSUNNY   73  63  70 W16       30.00F
SAN DIEGO      MOSUNNY   76  61  59 W12       30.01S
BURBANK        SUNNY     81  58  45 S8        29.98F
ONTARIO        MOSUNNY   86  53  32 SW12      29.98F
RIVERSIDE      SUNNY     86  60  41 VRB6      29.97F
PALM SPRINGS   SUNNY    104  49  15 S12       29.88F HX 101
EL CENTRO NAS  MOSUNNY  101  46  15 E7        29.86F
IMPERIAL       SUNNY    101  53  20 MISG      29.84F
BLYTHE         SUNNY    103  42  12 SW5       29.86F
NEEDLES        SUNNY    107  28   6 SE9G16    29.89F
$$

NVZ020-UTZ003-182100-
SOUTHERN NEVADA-UTAH

CITY           SKY/WX    TMP DP  RH WIND       PRES   REMARKS
LAS VEGAS      MOSUNNY  100  38  11 VRB3      29.98F
SALT LAKE CITY MOSUNNY   89  43  20 NW10G18   30.13F
$$

NMZ009-TXZ055-182100-
NEW MEXICO-WEST TEXAS

CITY           SKY/WX    TMP DP  RH WIND       PRES   REMARKS
ALBUQUERQUE    MOSUNNY   89  36  15 NW7       30.20F
EL PASO        MOSUNNY   92  61  35 S7        30.09F
$$


........................KEY........................
SKY/WX - SKY CONDITION/WEATHER
TMP    - TEMPERATURE IN FAHRENHEIT
DP     - DEW POINT IN FAHRENHEIT
RH     - RELATIVE HUMIDITY IN PERCENT
WIND   - DIRECTION AND SPEED IN MILES PER HOUR (MPH)
VRB    - VARIABLE WIND DIRECTION
PRES   - MEAN SEA LEVEL PRESSURE IN INCHES OF MERCURY
         F - FALLING PRESSURE   R - RISING PRESSURE
         S - STEADY PRESSURE
VSB    - VISIBILITY IN MILES
HX     - HEAT INDEX IN FAHRENHEIT
WCI    - WIND CHILL INDEX IN FAHRENHEIT
TC     - TEMPERATURE IN CELSIUS WHICH IS ALSO KNOWN AS
         TEMPERATURE IN CENTIGRADE
AFB    - AIR FORCE BASE
         LUKE AFB IS LUKE AIR FORCE BASE
         DAVIS-MONTHAN IS DAVIS-MONTHAN AIR FORCE BASE
NAS    - NAVAL AIR STATION
         EL CENTRO NAS IS EL CENTRO NAVAL AIR STATION
N/A    - NOT AVAILABLE





USA.gov is the U.S. government's official web portal to all federal, state and local government web resources and services.